INTELSAT 21 (IS-21) (38749 NORAD) Tracking and Keplerian Element Data

This shows tracking and keplerian element data for the satellite.

Feedback or suggestion? Click here.




ElementValue
Catalog38749
NameINTELSAT 21 (IS-21)
Epoch Orbit4438
Epoch Day286.82299653
Epoch Year2024
RAAN131.7639
Inclination0.0133
Eccentricity0.0002429
Argument of Perigee76.0483
Mean Anonmoly52.367
Mean Motion1.00272689
Decay Rate-2.85E-06
L11 38749U 12045A 24286.82299653 -.00000285 00000+0 00000+0 0 9993
L22 38749 0.0133 131.7639 0002429 76.0483 52.3670 1.00272689 44382



Live tracking and technical data element details for INTELSAT 21 (IS-21) (NORAD 38749). INTELSAT 21 (IS-21) can be tracked NOW for your location showing map with azimuth and elevation plus other details from your city location.







IsCatalogInMostPopularTable: catalog: 38749, numindb: 596
Update: records affected: 1



GetName: 38749 INTELSAT 21 (IS-21)

Hit Count: updated at: Tue, 03 Dec 2024 01:26:39 GMT